[[{"header":{"parameterUnit":"m.s-1","parameterCategory":2,"la1":30.2991,"la2":30.254,"lo1":-89.0895,"lo2":-89.0444,"dy":0.0017,"dx":0.0017,"nx":28,"ny":28,"refTime":"2025-12-24T03:00:00:Z","depth":"0","parameterNumber":2,"parameterNumberName":"U-component_of_CURRENTS"},"data":[0,0,0,0,0,0,0,0,0,0,0,0,0,0,0,0,0,0,0,0,0,0,0,0,0,0,0,0,0,0,0,0,0,0,0,0,0,0,0,0,0,0,0,0,0,0,0,0,0,0,0,0,0,0,0,0,0,0,0.399,0.399,0,0.3975,0.3974,0.3974,0.3938,0.3938,0.3938,0.3938,0.3866,0.3864,0.3862,0,0,0,0,0,0,0,0,0,0,0,0,0,0.3957,0.3957,0.399,0.399,0.3991,0.3975,0.3974,0.3973,0.3938,0.3938,0.3938,0.3938,0.3866,0.3864,0.3862,0,0,0,0,0,0,0,0,0,0,0,0,0,0.3953,0.3957,0.399,0.3977,0.3976,0.3975,0.3974,0.3973,0.3938,0.3938,0.3938,0.3938,0.3867,0.3864,0.3861,0.3847,0,0,0.3853,0.3852,0,0,0,0,0,0,0,0,0.3953,0.3953,0.3978,0.3978,0.3977,0.3965,0.3936,0.393,0.3938,0.3945,0.3938,0.3938,0.3898,0.3893,0.3881,0.3843,0.384,0.3853,0.3851,0.385,0.3849,0,0,0,0,0,0,0,0.3953,0.3953,0.3977,0.3979,0.3978,0.3961,0.396,0.3935,0.3916,0.3944,0.3944,0.3953,0.3896,0.3884,0.3879,0.3839,0.3853,0.385,0.3849,0.3847,0.3816,0.3816,0,0,0,0,0,0,0.3971,0.3954,0.3977,0.3977,0.3972,0.3963,0.3961,0.3963,0.3917,0.3913,0.3953,0.3952,0.3888,0.3882,0.3876,0.3889,0.385,0.3847,0.3846,0.3815,0.3816,0.3817,0,0,0,0,0,0,0.3971,0.3973,0.3978,0.3971,0.3972,0.3964,0.3966,0.3963,0.3959,0.3926,0.3919,0.3956,0.3888,0.388,0.3864,0.3884,0.3846,0.3843,0.3814,0.3815,0.3816,0.3893,0,0,0,0,0,0,0.3969,0.3973,0.3973,0.3972,0.3973,0.3992,0.3967,0.3963,0.3969,0.3966,0.3926,0.3918,0.3887,0.3869,0.3861,0.388,0.3841,0.3813,0.3814,0.3816,0.3889,0.3896,0.3902,0,0,0,0,0,0.3968,0.3973,0.3973,0.3976,0.3976,0.3994,0.3992,0.3981,0.3969,0.3975,0.3945,0.392,0.3873,0.3867,0.3858,0.3876,0.3812,0.3814,0.3816,0.3886,0.3895,0.3902,0,0,0,0,0,0,0.3957,0.3971,0.3971,0.3978,0.3995,0.3991,0.3995,0.399,0.3971,0.3966,0.3925,0.3916,0.3912,0.3883,0.3877,0.3872,0.3841,0.3841,0.3897,0.3905,0.3911,0.3924,0.3839,0,0,0,0,0,0.3959,0.3964,0.3982,0.3989,0.4001,0.3999,0.4003,0.4003,0.3993,0.3984,0.3956,0.3928,0.3912,0.39,0.3878,0.3871,0.3884,0.3878,0.3885,0.3891,0.3895,0.3929,0.3939,0.3823,0.3823,0.3823,0,0,0.3956,0.3966,0.3967,0.3987,0.3994,0.4012,0.3999,0.4018,0.4025,0.3979,0.3969,0.395,0.3916,0.3912,0.3907,0.389,0.3939,0.3893,0.3899,0.39,0.3932,0.3943,0.3954,0.3824,0.3824,0.3824,0,0,0.3961,0.3967,0.3977,0.3995,0.4023,0.4026,0.4038,0.4045,0.4041,0.4039,0.4011,0.4008,0.3971,0.3958,0.3945,0.3974,0.3976,0.3969,0.4009,0.4042,0.4053,0.4061,0.4134,0.4148,0.397,0.397,0.397,0,0.3957,0.3974,0.3984,0.4007,0.4026,0.4037,0.4061,0.4059,0.4057,0.4062,0.4046,0.4023,0.3994,0.4,0.401,0.3991,0.4023,0.3983,0.4053,0.4062,0.407,0.4141,0.4156,0.3974,0.3974,0.3973,0.3973,0,0.3978,0.3993,0.4006,0.4034,0.4054,0.408,0.4097,0.411,0.4108,0.4107,0.4118,0.4089,0.4079,0.4073,0.4046,0.4089,0.4102,0.4063,0.4037,0.4087,0.4159,0.4173,0.398,0.3978,0.3977,0.3976,0,0,0.396,0.4009,0.4012,0.4034,0.4074,0.4094,0.412,0.4149,0.4169,0.4166,0.4189,0.4169,0.4167,0.4152,0.4132,0.4153,0.4246,0.4136,0.4136,0.4218,0.4362,0.4375,0.4392,0.4224,0.4226,0.4227,0.4405,0,0.3973,0.4015,0.4038,0.4078,0.4105,0.4135,0.4157,0.4184,0.4199,0.4221,0.4216,0.4223,0.4193,0.4198,0.422,0.4225,0.4282,0.4204,0.4293,0.4296,0.4308,0.4407,0.4119,0.4252,0.4419,0.4422,0.4423,0,0.3985,0.4013,0.4055,0.4109,0.4124,0.4147,0.4202,0.4223,0.4262,0.4276,0.43,0.4297,0.4329,0.4291,0.4367,0.4322,0.436,0.4372,0.4378,0.4368,0.4335,0.422,0.4272,0.4135,0.4446,0.4444,0.4442,0,0.3967,0.4024,0.4056,0.4076,0.4135,0.4161,0.419,0.4237,0.4262,0.4314,0.4342,0.4379,0.4399,0.4441,0.4477,0.443,0.4575,0.4507,0.4573,0.4576,0.4335,0.4313,0.4263,0.4594,0.4593,0.4593,0.4592,0,0.397,0.3991,0.405,0.4066,0.4104,0.4154,0.4197,0.4233,0.4292,0.4323,0.4365,0.4406,0.4436,0.4511,0.4535,0.4623,0.4635,0.4616,0.4626,0.4359,0.4338,0.421,0.4174,0.4599,0.4598,0.4597,0.4595,0,0.3932,0.3975,0.4011,0.4076,0.4093,0.4117,0.4185,0.4209,0.4284,0.4332,0.4353,0.4446,0.4564,0.4631,0.472,0.4704,0.4639,0.4808,0.4524,0.4497,0.4399,0.4379,0.4273,0.416,0.4898,0.49,0.4901,0,0.3907,0.3926,0.3994,0.4004,0.4028,0.4073,0.4092,0.418,0.4214,0.435,0.4367,0.4521,0.4612,0.4788,0.4779,0.4876,0.4727,0.4672,0.4519,0.4394,0.4378,0.4231,0.4131,0.4245,0.4241,0.4237,0.4235,0,0.3848,0.388,0.3902,0.3943,0.3967,0.3999,0.4045,0.408,0.4186,0.426,0.4373,0.4472,0.4634,0.4588,0.4727,0.4731,0.4408,0.4609,0.4503,0.3908,0.3713,0.3605,0.4178,0.4203,0.4207,0.4209,0.421,0.4212,0.3781,0.3789,0.3832,0.3857,0.3891,0.3919,0.3913,0.3984,0.4058,0.412,0.4291,0.4333,0.4332,0.4479,0.4488,0.4251,0.4306,0.4041,0.4052,0.3936,0.373,0.4297,0.4318,0.4321,0.4324,0.4327,0.433,0,0.3693,0.3715,0.3738,0.3772,0.3779,0.3832,0.3864,0.384,0.3885,0.3959,0.4051,0.3969,0.3942,0.3929,0.3763,0.3631,0.3452,0.3537,0.318,0.3131,0.3627,0.3497,0.3308,0.3308,0.3308,0.3308,0.3308,0.3309,0.3638,0.3639,0.3663,0.3653,0.3673,0.3629,0.3627,0.36,0.3617,0.3513,0.3407,0.3438,0.3446,0.3403,0.3205,0.3135,0.2902,0.2773,0.2887,0.3142,0.3185,0.3226,0.3091,0.282,0.282,0.2132,0.2127,0.2123]},{"header":{"parameterUnit":"m.s-1","parameterCategory":2,"la1":30.2991,"la2":30.254,"lo1":-89.0895,"lo2":-89.0444,"dy":0.0017,"dx":0.0017,"nx":28,"ny":28,"refTime":"2025-12-24T03:00:00:Z","depth":"0","parameterNumber":3,"parameterNumberName":"V-component_of_CURRENTS"},"data":[0,0,0,0,0,0,0,0,0,0,0,0,0,0,0,0,0,0,0,0,0,0,0,0,0,0,0,0,0,0,0,0,0,0,0,0,0,0,0,0,0,0,0,0,0,0,0,0,0,0,0,0,0,0,0,0,0,0,-0.0857,-0.0858,0,-0.092,-0.092,-0.0921,-0.0956,-0.0956,-0.0956,-0.0956,-0.1029,-0.1031,-0.1033,0,0,0,0,0,0,0,0,0,0,0,0,0,-0.0806,-0.0806,-0.0857,-0.0858,-0.0858,-0.0919,-0.092,-0.0921,-0.0956,-0.0956,-0.0956,-0.0956,-0.1029,-0.1031,-0.1033,0,0,0,0,0,0,0,0,0,0,0,0,0,-0.0845,-0.0807,-0.0857,-0.0882,-0.0885,-0.0919,-0.092,-0.0922,-0.0956,-0.0956,-0.0956,-0.0956,-0.1028,-0.1031,-0.1034,-0.1053,0,0,-0.1043,-0.1044,0,0,0,0,0,0,0,0,-0.0843,-0.0847,-0.0878,-0.088,-0.0883,-0.0929,-0.0929,-0.0966,-0.0956,-0.093,-0.0956,-0.0956,-0.0996,-0.1001,-0.1015,-0.1057,-0.106,-0.1043,-0.1045,-0.1046,-0.1047,0,0,0,0,0,0,0,-0.084,-0.0845,-0.0883,-0.0878,-0.0882,-0.0903,-0.0908,-0.0937,-0.0964,-0.0933,-0.0935,-0.094,-0.0998,-0.1012,-0.1017,-0.1061,-0.1043,-0.1046,-0.1048,-0.1049,-0.1123,-0.1123,0,0,0,0,0,0,-0.0828,-0.0842,-0.0881,-0.0885,-0.0861,-0.0904,-0.091,-0.0915,-0.0963,-0.097,-0.0939,-0.0941,-0.1007,-0.1014,-0.102,-0.1033,-0.1046,-0.1049,-0.1051,-0.1122,-0.1123,-0.1123,0,0,0,0,0,0,-0.0827,-0.0831,-0.0879,-0.0864,-0.0871,-0.0904,-0.091,-0.0917,-0.0929,-0.0968,-0.0976,-0.0945,-0.1007,-0.1016,-0.1042,-0.1037,-0.105,-0.1053,-0.1122,-0.1122,-0.1123,-0.1068,0,0,0,0,0,0,-0.0825,-0.083,-0.0832,-0.0863,-0.0872,-0.0895,-0.0911,-0.0918,-0.0932,-0.0934,-0.0976,-0.0983,-0.1008,-0.1037,-0.1045,-0.1041,-0.1055,-0.1122,-0.1122,-0.1123,-0.107,-0.1066,-0.1064,0,0,0,0,0,-0.0823,-0.0822,-0.0831,-0.0836,-0.0872,-0.0894,-0.0901,-0.0925,-0.0932,-0.0937,-0.0963,-0.0981,-0.1045,-0.104,-0.1048,-0.1046,-0.1122,-0.1122,-0.1123,-0.1071,-0.1067,-0.1064,0,0,0,0,0,0,-0.0797,-0.0826,-0.0837,-0.0844,-0.0866,-0.09,-0.0905,-0.0922,-0.0948,-0.0947,-0.0984,-0.0993,-0.1016,-0.104,-0.1034,-0.1069,-0.1086,-0.1088,-0.1044,-0.1041,-0.1038,-0.101,-0.1058,0,0,0,0,0,-0.0792,-0.08,-0.083,-0.0834,-0.0843,-0.0873,-0.0885,-0.09,-0.0926,-0.0937,-0.0966,-0.0996,-0.1025,-0.1039,-0.1069,-0.1087,-0.1084,-0.1093,-0.1089,-0.1087,-0.1072,-0.1075,-0.107,-0.1124,-0.1124,-0.1124,0,0,-0.078,-0.0798,-0.0802,-0.0829,-0.0847,-0.0852,-0.088,-0.0892,-0.0894,-0.0941,-0.0952,-0.0988,-0.1029,-0.105,-0.1061,-0.1068,-0.1065,-0.1087,-0.1084,-0.107,-0.1074,-0.1069,-0.1064,-0.1124,-0.1124,-0.1124,0,0,-0.0759,-0.0778,-0.0777,-0.0793,-0.0816,-0.0833,-0.0834,-0.0865,-0.0877,-0.0896,-0.093,-0.0958,-0.1002,-0.1028,-0.1048,-0.1047,-0.1051,-0.1061,-0.102,-0.1024,-0.1018,-0.1014,-0.0978,-0.097,-0.1057,-0.1057,-0.1057,0,-0.0742,-0.0748,-0.0779,-0.0782,-0.0787,-0.082,-0.0814,-0.0832,-0.0867,-0.0871,-0.089,-0.0949,-0.0989,-0.1008,-0.1012,-0.1038,-0.1026,-0.1028,-0.1017,-0.1013,-0.1009,-0.0973,-0.0966,-0.1054,-0.1054,-0.1055,-0.1055,0,-0.0723,-0.0726,-0.0724,-0.0736,-0.0748,-0.0747,-0.0773,-0.0782,-0.08,-0.0818,-0.0841,-0.0896,-0.0927,-0.0951,-0.0982,-0.0981,-0.0974,-0.1012,-0.1019,-0.1,-0.0964,-0.0957,-0.105,-0.1051,-0.1052,-0.1053,0,0,-0.0676,-0.0704,-0.07,-0.0697,-0.0722,-0.0723,-0.0727,-0.0736,-0.0725,-0.0765,-0.0755,-0.082,-0.0847,-0.0871,-0.0917,-0.0924,-0.0892,-0.0951,-0.0952,-0.09,-0.0861,-0.076,-0.0743,-0.0926,-0.0925,-0.0925,-0.0836,0,-0.0645,-0.0636,-0.0661,-0.0641,-0.0635,-0.0665,-0.0661,-0.0674,-0.0692,-0.0691,-0.074,-0.0754,-0.0817,-0.083,-0.0848,-0.0889,-0.0876,-0.091,-0.09,-0.0898,-0.08,-0.0733,-0.0693,-0.0602,-0.0829,-0.0828,-0.0827,0,-0.0607,-0.0609,-0.0586,-0.0589,-0.0587,-0.0579,-0.0572,-0.0574,-0.0588,-0.06,-0.0624,-0.0664,-0.0688,-0.0743,-0.0773,-0.0789,-0.0811,-0.0837,-0.0835,-0.0753,-0.0785,-0.0666,-0.0582,-0.0757,-0.0817,-0.0818,-0.0819,0,-0.0547,-0.0549,-0.0526,-0.0527,-0.0537,-0.0527,-0.0529,-0.054,-0.0525,-0.0536,-0.0518,-0.0569,-0.0569,-0.0624,-0.0676,-0.0725,-0.068,-0.0762,-0.068,-0.0673,-0.0641,-0.0631,-0.0712,-0.0757,-0.0757,-0.0758,-0.0758,0,-0.0497,-0.0476,-0.0493,-0.0478,-0.0438,-0.0469,-0.0427,-0.0438,-0.0433,-0.0384,-0.046,-0.0418,-0.0538,-0.0537,-0.0614,-0.0589,-0.0627,-0.0635,-0.0636,-0.0617,-0.0607,-0.0761,-0.0873,-0.0754,-0.0755,-0.0756,-0.0756,0,-0.0429,-0.0442,-0.0414,-0.0416,-0.0406,-0.0376,-0.0355,-0.0326,-0.0331,-0.0266,-0.026,-0.0283,-0.0254,-0.0339,-0.0394,-0.0469,-0.0549,-0.0474,-0.0415,-0.0408,-0.051,-0.0618,-0.0639,-0.0701,-0.0378,-0.0375,-0.0372,0,-0.0391,-0.0371,-0.0354,-0.0328,-0.0324,-0.0289,-0.0256,-0.0263,-0.0225,-0.0163,-0.0112,-0.0069,0.0021,0.0001,-0.0114,-0.0167,-0.0378,-0.0216,-0.0313,-0.0467,-0.0592,-0.0684,-0.0745,-0.025,-0.0246,-0.0244,-0.0241,0,-0.032,-0.0316,-0.0295,-0.0245,-0.0205,-0.0162,-0.0117,-0.0064,-0.0041,0.0051,0.019,0.0276,0.0291,0.0298,0.0207,0.0102,-0.0325,-0.0156,-0.0357,-0.0504,-0.0571,-0.0646,-0.0344,-0.0216,-0.0219,-0.0221,-0.0222,-0.0223,-0.0262,-0.0234,-0.0208,-0.0155,-0.0106,-0.0034,0.0042,0.0125,0.0255,0.0472,0.049,0.0765,0.0638,0.0559,0.0345,-0.0032,-0.0077,-0.0181,-0.0297,-0.0373,-0.0444,-0.0042,0.0106,0.0105,0.0105,0.0104,0.0104,0,-0.0193,-0.017,-0.0121,-0.0054,0.0022,0.0024,0.0143,0.0278,0.05,0.0788,0.1006,0.1215,0.1006,0.0687,0.0184,-0.0134,-0.0332,-0.035,-0.0544,-0.0599,-0.0272,-0.0282,-0.0161,-0.0161,-0.0161,-0.0161,-0.0161,-0.0161,-0.0153,-0.0099,-0.008,0.0049,0.0107,0.0255,0.0344,0.0594,0.085,0.1313,0.1621,0.1812,0.1547,0.0471,-0.0275,-0.0457,-0.0773,-0.0764,-0.0929,-0.0803,-0.08,-0.0798,-0.0837,-0.0834,-0.0834,-0.123,-0.1234,-0.1237]}],[{"header":{"parameterUnit":"m.s-1","parameterCategory":2,"la1":30.2991,"la2":30.254,"lo1":-89.0895,"lo2":-89.0444,"dy":0.0017,"dx":0.0017,"nx":28,"ny":28,"refTime":"2025-12-24T03:00:00:Z","depth":"2","parameterNumber":2,"parameterNumberName":"U-component_of_CURRENTS"},"data":[0,0,0,0,0,0,0,0,0,0,0,0,0,0,0,0,0,0,0,0,0,0,0,0,0,0,0,0,0,0,0,0,0,0,0,0,0,0,0,0,0,0,0,0,0,0,0,0,0,0,0,0,0,0,0,0,0,0,0.2184,0.2184,0,0.2204,0.2205,0.2205,0.2229,0.2229,0.223,0.223,0.2235,0.2235,0.2235,0,0,0,0,0,0,0,0,0,0,0,0,0,0.2148,0.2149,0.2184,0.2184,0.2184,0.2204,0.2205,0.2205,0.2229,0.2229,0.223,0.223,0.2235,0.2235,0.2235,0,0,0,0,0,0,0,0,0,0,0,0,0,0.2168,0.2149,0.2184,0.2196,0.2197,0.2204,0.2205,0.2205,0.2229,0.2229,0.223,0.223,0.2235,0.2235,0.2235,0.223,0,0,0.2235,0.2235,0,0,0,0,0,0,0,0,0.2167,0.217,0.2194,0.2195,0.2197,0.2212,0.2194,0.2212,0.2229,0.222,0.223,0.223,0.2224,0.2225,0.2232,0.2231,0.2231,0.2235,0.2235,0.2235,0.2235,0,0,0,0,0,0,0,0.2166,0.2169,0.2194,0.2194,0.2196,0.2195,0.2198,0.2198,0.2222,0.2221,0.2222,0.222,0.2225,0.2232,0.2232,0.2231,0.2235,0.2235,0.2235,0.2235,0.2328,0.233,0,0,0,0,0,0,0.2159,0.2168,0.2194,0.2195,0.2179,0.2195,0.2199,0.2209,0.2222,0.2224,0.222,0.2221,0.2232,0.2232,0.2232,0.2275,0.2235,0.2235,0.2235,0.2325,0.2328,0.2331,0,0,0,0,0,0,0.2158,0.2161,0.2193,0.2179,0.2182,0.2196,0.2206,0.2209,0.2206,0.2222,0.2224,0.2211,0.2232,0.2232,0.2241,0.2273,0.2235,0.2235,0.2322,0.2326,0.2329,0.2329,0,0,0,0,0,0,0.2157,0.2161,0.2178,0.2179,0.2183,0.2198,0.2206,0.2209,0.2204,0.2205,0.2215,0.2217,0.2232,0.2241,0.2241,0.2272,0.2235,0.2319,0.2324,0.2328,0.2326,0.2332,0.2337,0,0,0,0,0,0.2156,0.2173,0.2179,0.2183,0.2202,0.2198,0.22,0.2211,0.2203,0.2207,0.2219,0.2216,0.2273,0.2242,0.2241,0.2273,0.2317,0.2323,0.2328,0.2323,0.2331,0.2337,0,0,0,0,0,0,0.2182,0.2177,0.2184,0.2205,0.2201,0.2201,0.221,0.22,0.2211,0.2222,0.222,0.2223,0.226,0.2264,0.223,0.2323,0.2305,0.2311,0.2302,0.2309,0.2315,0.2353,0.2235,0,0,0,0,0,0.2191,0.2193,0.2192,0.2207,0.2207,0.2202,0.2203,0.2211,0.2214,0.2219,0.2248,0.2274,0.2285,0.2289,0.2326,0.2341,0.2368,0.2376,0.2381,0.2386,0.2422,0.2457,0.2468,0.2349,0.2349,0.2349,0,0,0.2205,0.2202,0.2206,0.2211,0.2212,0.2221,0.2204,0.2212,0.2235,0.2217,0.2283,0.2297,0.2298,0.2345,0.2361,0.2343,0.2438,0.2393,0.2396,0.2431,0.2464,0.2475,0.2485,0.2353,0.2352,0.2351,0,0,0.2214,0.223,0.2229,0.2229,0.2232,0.2238,0.2231,0.2256,0.2284,0.232,0.233,0.2361,0.2389,0.2415,0.2411,0.2467,0.2475,0.2482,0.2524,0.2555,0.2565,0.2573,0.2628,0.2641,0.2473,0.2473,0.2473,0,0.2218,0.2233,0.2229,0.2231,0.2236,0.2238,0.2245,0.2275,0.2315,0.2343,0.2353,0.2428,0.2431,0.2451,0.2489,0.248,0.2505,0.248,0.2559,0.2569,0.2577,0.2631,0.2646,0.2474,0.2474,0.2474,0.2474,0,0.2239,0.2244,0.2243,0.2248,0.226,0.2266,0.2298,0.2345,0.2377,0.2411,0.248,0.2506,0.2545,0.2553,0.2531,0.2597,0.2599,0.2563,0.2529,0.2589,0.2643,0.2658,0.2475,0.2475,0.2474,0.2474,0,0,0.2228,0.2246,0.225,0.2239,0.2268,0.2268,0.233,0.2369,0.2413,0.2488,0.2543,0.2588,0.2621,0.2627,0.2621,0.2655,0.2733,0.2641,0.2642,0.2677,0.2826,0.2755,0.2765,0.2695,0.2697,0.2699,0.2839,0,0.2226,0.224,0.2261,0.2262,0.2253,0.2289,0.2346,0.2399,0.2462,0.2543,0.2578,0.2646,0.2637,0.2665,0.2695,0.2732,0.2775,0.2702,0.2783,0.2787,0.27,0.2781,0.2553,0.2651,0.2854,0.2856,0.2858,0,0.221,0.2226,0.2241,0.2248,0.2255,0.2284,0.236,0.2415,0.2523,0.2585,0.2657,0.2698,0.2777,0.2756,0.286,0.2811,0.2839,0.2863,0.2867,0.2819,0.2745,0.2628,0.2671,0.2884,0.2882,0.288,0.2878,0,0.217,0.2181,0.2193,0.2198,0.2244,0.2276,0.2327,0.2436,0.2498,0.2632,0.2695,0.2782,0.2846,0.2896,0.2949,0.2916,0.3058,0.3002,0.2973,0.2969,0.2806,0.2782,0.3088,0.3088,0.3088,0.3087,0.3087,0,0.2127,0.2128,0.2176,0.2185,0.2215,0.2264,0.2332,0.2417,0.2541,0.2618,0.272,0.2796,0.2887,0.2959,0.299,0.3041,0.309,0.3025,0.3007,0.2801,0.2776,0.2996,0.2984,0.3093,0.3092,0.3091,0.309,0,0.2067,0.2104,0.2085,0.215,0.2185,0.2207,0.2324,0.2389,0.2524,0.263,0.268,0.2837,0.295,0.3018,0.3121,0.3096,0.3146,0.3143,0.2912,0.2864,0.3033,0.3019,0.3149,0.3148,0.3147,0.3146,0.3146,0,0.2044,0.2016,0.206,0.2073,0.2107,0.2167,0.224,0.2379,0.2461,0.2641,0.2697,0.2846,0.2917,0.3056,0.3064,0.3118,0.3159,0.2928,0.2819,0.3074,0.3044,0.3031,0.3019,0.2615,0.261,0.2606,0.2603,0,0.1968,0.1968,0.1991,0.2022,0.2069,0.2097,0.2214,0.2262,0.2428,0.2516,0.2643,0.2709,0.2868,0.2825,0.2899,0.2891,0.2899,0.2846,0.318,0.2622,0.2577,0.2545,0.255,0.2567,0.257,0.2573,0.2575,0.2577,0.1914,0.1894,0.1923,0.1935,0.198,0.2004,0.201,0.2129,0.2199,0.2306,0.2469,0.2513,0.2608,0.2603,0.2557,0.2542,0.2738,0.2623,0.2633,0.2648,0.2548,0.2502,0.2462,0.2464,0.2467,0.2469,0.2471,0,0.1809,0.1827,0.1845,0.1846,0.183,0.1923,0.1976,0.1958,0.1984,0.2129,0.2207,0.2087,0.2094,0.2194,0.212,0.2146,0.2095,0.2065,0.1974,0.2014,0.2049,0.1914,0.1662,0.1659,0.1656,0.1653,0,0,0.1767,0.1752,0.1761,0.1696,0.1717,0.1679,0.1675,0.169,0.1742,0.1733,0.1775,0.1973,0.2116,0.1835,0.1833,0.1729,0.1842,0.1665,0.2324,0.2256,0.2286,0.2396,0.2238,0,0,0,0,0]},{"header":{"parameterUnit":"m.s-1","parameterCategory":2,"la1":30.2991,"la2":30.254,"lo1":-89.0895,"lo2":-89.0444,"dy":0.0017,"dx":0.0017,"nx":28,"ny":28,"refTime":"2025-12-24T03:00:00:Z","depth":"2","parameterNumber":3,"parameterNumberName":"V-component_of_CURRENTS"},"data":[0,0,0,0,0,0,0,0,0,0,0,0,0,0,0,0,0,0,0,0,0,0,0,0,0,0,0,0,0,0,0,0,0,0,0,0,0,0,0,0,0,0,0,0,0,0,0,0,0,0,0,0,0,0,0,0,0,0,0.0401,0.0401,0,0.0334,0.0333,0.0331,0.0282,0.0282,0.0282,0.0282,0.0194,0.0192,0.019,0,0,0,0,0,0,0,0,0,0,0,0,0,0.0426,0.0426,0.0401,0.0401,0.04,0.0334,0.0333,0.0331,0.0282,0.0282,0.0282,0.0282,0.0195,0.0192,0.0189,0,0,0,0,0,0,0,0,0,0,0,0,0,0.0388,0.0426,0.0401,0.0372,0.0369,0.0334,0.0332,0.0331,0.0282,0.0282,0.0282,0.0282,0.0196,0.0193,0.0189,0.0165,0,0,0.0178,0.0176,0,0,0,0,0,0,0,0,0.039,0.0387,0.0376,0.0374,0.037,0.0321,0.031,0.0276,0.0282,0.0309,0.0282,0.0282,0.0238,0.0231,0.0211,0.0161,0.0157,0.0178,0.0176,0.0174,0.0173,0,0,0,0,0,0,0,0.0393,0.0389,0.0369,0.0376,0.0373,0.0341,0.0336,0.0302,0.027,0.0307,0.0304,0.0305,0.0236,0.0215,0.0209,0.0156,0.0178,0.0175,0.0172,0.0171,0.0082,0.0082,0,0,0,0,0,0,0.0415,0.0392,0.0371,0.0368,0.0387,0.0342,0.0335,0.0332,0.027,0.0263,0.0305,0.0303,0.0221,0.0213,0.0205,0.0192,0.0174,0.0171,0.0169,0.0083,0.0082,0.0082,0,0,0,0,0,0,0.0416,0.0414,0.0374,0.0382,0.0376,0.0342,0.0339,0.0331,0.0321,0.027,0.0261,0.0305,0.022,0.021,0.0181,0.0188,0.0169,0.0166,0.0083,0.0082,0.0082,0.0154,0,0,0,0,0,0,0.0417,0.0414,0.0415,0.0384,0.0377,0.0368,0.0339,0.033,0.0323,0.032,0.0267,0.0258,0.022,0.0187,0.0178,0.0182,0.0163,0.0083,0.0083,0.0082,0.0152,0.0156,0.0159,0,0,0,0,0,0.0418,0.0421,0.0415,0.0413,0.038,0.0369,0.0362,0.0334,0.0324,0.0323,0.0284,0.026,0.0178,0.0184,0.0173,0.0177,0.0083,0.0083,0.0082,0.015,0.0155,0.0159,0,0,0,0,0,0,0.0428,0.0416,0.0409,0.0407,0.0398,0.0363,0.036,0.0345,0.0312,0.0306,0.0258,0.0247,0.0221,0.0188,0.0197,0.0148,0.0126,0.0124,0.0181,0.0185,0.0189,0.0208,0.016,0,0,0,0,0,0.0435,0.0437,0.0421,0.0423,0.0421,0.0393,0.0385,0.0369,0.034,0.0326,0.0287,0.0244,0.0208,0.0191,0.015,0.0129,0.01,0.0122,0.0126,0.013,0.0136,0.0099,0.0101,0.0081,0.0081,0.0081,0,0,0.0444,0.0435,0.0439,0.0426,0.0413,0.0415,0.0387,0.0382,0.0379,0.0321,0.0299,0.0256,0.0204,0.0175,0.0161,0.0152,0.012,0.0129,0.0133,0.0137,0.0099,0.0101,0.0103,0.008,0.008,0.008,0,0,0.0465,0.0454,0.0465,0.0461,0.0451,0.0434,0.0442,0.0413,0.0396,0.0373,0.0328,0.0294,0.0238,0.0202,0.0178,0.018,0.0141,0.0165,0.0203,0.0168,0.017,0.0171,0.0143,0.0141,0.0169,0.0169,0.0169,0,0.0476,0.0485,0.0468,0.0475,0.0481,0.0452,0.047,0.0444,0.0408,0.0398,0.0376,0.0294,0.025,0.0222,0.0217,0.0191,0.0166,0.0193,0.0175,0.0176,0.0176,0.0146,0.0144,0.0173,0.0172,0.0172,0.0172,0,0.0504,0.0513,0.0521,0.0524,0.0526,0.0535,0.0514,0.05,0.0476,0.0451,0.0417,0.0351,0.0308,0.0284,0.0249,0.0229,0.021,0.0186,0.017,0.0183,0.015,0.0146,0.0177,0.0176,0.0175,0.0174,0,0,0.0524,0.054,0.0543,0.0563,0.0556,0.0565,0.0559,0.0551,0.0556,0.05,0.05,0.0424,0.0391,0.0361,0.0312,0.0276,0.0251,0.0236,0.0233,0.0221,0.0179,0.015,0.0142,0.0226,0.0225,0.0225,0.0159,0,0.0555,0.059,0.0587,0.0628,0.0649,0.0629,0.0632,0.0617,0.0593,0.0578,0.0509,0.0485,0.0421,0.0406,0.0359,0.0282,0.0242,0.0272,0.0157,0.0154,0.0137,0.0136,0.0151,0.0092,0.0155,0.0154,0.0153,0,0.0585,0.0605,0.0653,0.0691,0.07,0.0715,0.0729,0.0731,0.0696,0.0676,0.0636,0.0581,0.0523,0.0466,0.0344,0.0368,0.028,0.0212,0.0208,0.0153,0.0116,0.0086,0.0081,0.0146,0.0146,0.0147,0.0147,0,0.0618,0.0657,0.0703,0.0714,0.0739,0.0757,0.0774,0.076,0.0783,0.0746,0.0749,0.0664,0.0636,0.0513,0.037,0.0358,0.0234,0.0201,0.0089,0.0087,0.0062,0.0058,0.0109,0.0109,0.0109,0.0109,0.011,0,0.0655,0.0691,0.0723,0.0747,0.0804,0.0809,0.0868,0.0857,0.0872,0.091,0.0811,0.0816,0.0646,0.0551,0.0404,0.0241,0.0259,0.0097,0.0066,0.0087,0.0085,0.01,0.01,0.0107,0.0108,0.0108,0.0108,0,0.0687,0.0705,0.0762,0.0804,0.0823,0.0869,0.0949,0.0993,0.0983,0.103,0.1025,0.0944,0.0816,0.0631,0.0442,0.0301,0.0136,0.0069,0.0108,0.0082,0.0003,0.0007,-0.0059,-0.006,-0.0062,-0.0063,-0.0064,0,0.0707,0.0739,0.081,0.0854,0.0879,0.0952,0.1008,0.1044,0.111,0.1113,0.1149,0.1037,0.097,0.0677,0.0411,0.0149,0.0121,-0.0008,-0.0039,0.0008,-0.0015,-0.0009,-0.0003,-0.0042,-0.0042,-0.0043,-0.0043,0,0.0744,0.0771,0.082,0.0914,0.0987,0.1081,0.1174,0.1241,0.1286,0.1308,0.1329,0.1269,0.0988,0.0723,0.036,0.0184,0.0032,-0.0029,0.0011,-0.0001,0.0019,-0.0002,0.0004,-0.0048,-0.0048,-0.0048,-0.0047,-0.0047,0.0771,0.0821,0.0893,0.0986,0.1077,0.1199,0.1283,0.1376,0.1469,0.1499,0.1459,0.1352,0.1069,0.0587,0.0295,-0.0015,-0.0007,-0.0119,-0.0114,-0.011,-0.0096,-0.008,-0.0163,-0.0163,-0.0163,-0.0163,-0.0163,0,0.0803,0.087,0.0962,0.1082,0.1192,0.1237,0.1385,0.1458,0.1555,0.1563,0.1549,0.1246,0.0945,0.0619,0.0152,-0.0119,-0.0129,-0.0199,-0.0152,-0.0145,-0.014,-0.0125,-0.0201,-0.0202,-0.0202,-0.0203,0,0,0.0824,0.0912,0.0969,0.1151,0.1248,0.14,0.1484,0.1557,0.1594,0.1574,0.1499,0.1401,0.1016,0.0677,0.0313,0.0053,0.0019,0.0004,0.006,0.0164,0.0173,-0.0073,-0.0041,0,0,0,0,0]}],[{"header":{"parameterUnit":"m.s-1","parameterCategory":2,"la1":30.2991,"la2":30.254,"lo1":-89.0895,"lo2":-89.0444,"dy":0.0017,"dx":0.0017,"nx":28,"ny":28,"refTime":"2025-12-24T03:00:00:Z","depth":"4","parameterNumber":2,"parameterNumberName":"U-component_of_CURRENTS"},"data":[0,0,0,0,0,0,0,0,0,0,0,0,0,0,0,0,0,0,0,0,0,0,0,0,0,0,0,0,0,0,0,0,0,0,0,0,0,0,0,0,0,0,0,0,0,0,0,0,0,0,0,0,0,0,0,0,0,0,0.1089,0.1089,0,0.1104,0.1104,0.1104,0.1139,0.114,0.1141,0.1141,0.1228,0.123,0.1231,0,0,0,0,0,0,0,0,0,0,0,0,0,0.1022,0.1023,0.1089,0.1089,0.109,0.1104,0.1104,0.1104,0.1139,0.114,0.1141,0.1142,0.1228,0.123,0.1231,0,0,0,0,0,0,0,0,0,0,0,0,0,0.1043,0.1023,0.1089,0.111,0.1113,0.1104,0.1104,0.1104,0.1138,0.114,0.1141,0.1142,0.1227,0.1229,0.1232,0.1217,0,0,0.1238,0.1239,0,0,0,0,0,0,0,0,0.1042,0.1045,0.1107,0.1109,0.1111,0.1123,0.1112,0.1146,0.1138,0.1126,0.1141,0.1143,0.12,0.1204,0.12,0.1222,0.1225,0.1238,0.124,0.1241,0.1241,0,0,0,0,0,0,0,0.1041,0.1045,0.1093,0.1107,0.111,0.1096,0.1101,0.1118,0.1155,0.1127,0.1131,0.1135,0.1202,0.1198,0.1203,0.1227,0.1238,0.124,0.1242,0.1242,0.1354,0.1356,0,0,0,0,0,0,0.1045,0.1044,0.1092,0.1094,0.1082,0.1096,0.1102,0.1116,0.1153,0.116,0.1134,0.1137,0.1193,0.12,0.1206,0.1297,0.1241,0.1243,0.1244,0.1353,0.1355,0.1356,0,0,0,0,0,0,0.1044,0.105,0.1092,0.107,0.1075,0.1097,0.1112,0.1116,0.1138,0.1158,0.1166,0.1156,0.1195,0.1203,0.1268,0.1297,0.1244,0.1246,0.1351,0.1353,0.1355,0.1411,0,0,0,0,0,0,0.1042,0.1049,0.1072,0.1071,0.1076,0.1105,0.1111,0.1115,0.1138,0.1142,0.1179,0.1187,0.1197,0.1265,0.127,0.1299,0.1247,0.1348,0.1352,0.1355,0.1407,0.1415,0.1422,0,0,0,0,0,0.104,0.1057,0.1073,0.108,0.1103,0.1106,0.1108,0.1125,0.1138,0.115,0.1195,0.1187,0.1288,0.1268,0.1274,0.1304,0.1347,0.1351,0.1354,0.1404,0.1413,0.1422,0,0,0,0,0,0,0.1027,0.1063,0.108,0.1106,0.1117,0.1113,0.1129,0.1136,0.1175,0.1197,0.1212,0.1224,0.129,0.129,0.1268,0.1345,0.1313,0.1319,0.1349,0.1358,0.1365,0.1358,0.1249,0,0,0,0,0,0.1038,0.1073,0.1087,0.111,0.112,0.1129,0.1137,0.1151,0.1177,0.1195,0.1221,0.126,0.1302,0.1327,0.1357,0.1399,0.1403,0.142,0.1428,0.1434,0.1433,0.1482,0.1494,0.1369,0.1369,0.1368,0,0,0.1035,0.1064,0.1081,0.1112,0.1125,0.1143,0.1138,0.1161,0.1188,0.12,0.1257,0.1289,0.1321,0.1377,0.1405,0.1386,0.1473,0.1439,0.1444,0.1439,0.1487,0.1499,0.151,0.1371,0.1371,0.137,0,0,0.1038,0.1078,0.1105,0.1125,0.1159,0.1168,0.1181,0.1198,0.1223,0.1274,0.13,0.1354,0.1402,0.1434,0.1456,0.1519,0.1513,0.1528,0.1559,0.1608,0.1618,0.1627,0.1649,0.166,0.1529,0.1529,0.153,0,0.1039,0.1078,0.1108,0.1137,0.116,0.1184,0.1206,0.123,0.1269,0.1297,0.1307,0.1399,0.1428,0.1497,0.1527,0.1535,0.1555,0.1523,0.1617,0.1626,0.1635,0.1655,0.1666,0.1533,0.1532,0.1532,0.1532,0,0.105,0.1096,0.1112,0.117,0.1193,0.122,0.1256,0.1293,0.1329,0.1352,0.143,0.1472,0.1526,0.1544,0.1561,0.1636,0.1628,0.1623,0.1592,0.1651,0.1668,0.1678,0.1537,0.1536,0.1535,0.1534,0,0,0.1025,0.1106,0.1117,0.1153,0.122,0.1233,0.1295,0.1345,0.1392,0.1438,0.1497,0.1568,0.159,0.1616,0.164,0.1681,0.1764,0.1685,0.1686,0.1701,0.1864,0.1756,0.1756,0.1785,0.1787,0.1789,0.1851,0,0.1032,0.1086,0.1131,0.119,0.1222,0.1277,0.1329,0.1385,0.144,0.1506,0.1556,0.163,0.1618,0.1667,0.1704,0.1761,0.1795,0.1747,0.1808,0.1809,0.1703,0.1766,0.1796,0.1859,0.1861,0.1863,0.1864,0,0.1033,0.1078,0.1131,0.1216,0.1235,0.1277,0.1369,0.1422,0.1519,0.1568,0.1637,0.1684,0.1767,0.175,0.1844,0.1819,0.1847,0.187,0.1873,0.1757,0.1721,0.1789,0.1883,0.1882,0.188,0.1879,0.1878,0,0.0995,0.108,0.1125,0.1154,0.1249,0.1293,0.1347,0.1442,0.1501,0.1623,0.1686,0.1765,0.1838,0.1879,0.193,0.1908,0.2021,0.1993,0.1908,0.19,0.1953,0.1942,0.2052,0.2052,0.2052,0.2052,0.2052,0,0.0982,0.1023,0.1116,0.1143,0.1206,0.1283,0.1363,0.1432,0.1548,0.1619,0.1721,0.1786,0.1882,0.1953,0.1966,0.197,0.2051,0.1921,0.1916,0.1974,0.1966,0.196,0.1949,0.2054,0.2054,0.2053,0.2053,0,0.0925,0.0993,0.1049,0.1153,0.1191,0.1236,0.1362,0.1414,0.1545,0.1646,0.1698,0.184,0.193,0.1994,0.208,0.2016,0.2033,0.2013,0.2074,0.2071,0.1864,0.1855,0.1911,0.1908,0.1905,0.1903,0.1901,0,0.0896,0.0921,0.1032,0.1071,0.1122,0.1207,0.1262,0.1396,0.1455,0.1652,0.1688,0.1843,0.1915,0.194,0.2016,0.2034,0.2009,0.1994,0.1914,0.1863,0.1854,0.1849,0.1844,0.1897,0.1896,0.1896,0.1895,0,0.0835,0.0881,0.0921,0.1002,0.1068,0.1129,0.1221,0.1261,0.1418,0.1551,0.1643,0.1711,0.1812,0.1868,0.1913,0.1915,0.1989,0.1965,0.1969,0.1894,0.1847,0.1839,0.1837,0.1886,0.1887,0.1888,0.1888,0,0.0783,0.079,0.0855,0.0916,0.0989,0.1031,0.1094,0.1173,0.1257,0.1471,0.1495,0.1655,0.1787,0.1809,0.1844,0.185,0.1809,0.1729,0.1744,0.1756,0.1678,0.1593,0.1557,0,0,0,0,0,0.0734,0.0735,0.0772,0.0833,0.0893,0.0944,0.1057,0.1127,0.1283,0.1303,0.1398,0.1482,0.1566,0.1651,0.1626,0.1772,0.1811,0.1734,0.1724,0.1834,0.1845,0.1768,0,0,0,0,0,0,0.0702,0.0726,0.0737,0.0747,0.0773,0.0834,0.0902,0.1008,0.1033,0.1199,0.1254,0.1378,0.1482,0.1559,0.1592,0.1616,0.1576,0.1832,0.1828,0.1828,0.1838,0.1846,0.1771,0,0,0,0,0]},{"header":{"parameterUnit":"m.s-1","parameterCategory":2,"la1":30.2991,"la2":30.254,"lo1":-89.0895,"lo2":-89.0444,"dy":0.0017,"dx":0.0017,"nx":28,"ny":28,"refTime":"2025-12-24T03:00:00:Z","depth":"4","parameterNumber":3,"parameterNumberName":"V-component_of_CURRENTS"},"data":[0,0,0,0,0,0,0,0,0,0,0,0,0,0,0,0,0,0,0,0,0,0,0,0,0,0,0,0,0,0,0,0,0,0,0,0,0,0,0,0,0,0,0,0,0,0,0,0,0,0,0,0,0,0,0,0,0,0,0.0317,0.0317,0,0.0297,0.0297,0.0296,0.0282,0.0282,0.0282,0.0282,0.0232,0.0231,0.023,0,0,0,0,0,0,0,0,0,0,0,0,0,0.0328,0.0328,0.0317,0.0317,0.0317,0.0297,0.0297,0.0296,0.0282,0.0282,0.0282,0.0282,0.0233,0.0231,0.0229,0,0,0,0,0,0,0,0,0,0,0,0,0,0.0315,0.0328,0.0317,0.0309,0.0309,0.0297,0.0297,0.0296,0.0282,0.0282,0.0282,0.0282,0.0233,0.0231,0.0229,0.0213,0,0,0.0223,0.0222,0,0,0,0,0,0,0,0,0.0316,0.0314,0.0311,0.031,0.0309,0.0294,0.0283,0.0268,0.0282,0.0289,0.0282,0.0282,0.0252,0.0248,0.0241,0.0211,0.0209,0.0223,0.0221,0.022,0.022,0,0,0,0,0,0,0,0.0317,0.0315,0.0307,0.0311,0.031,0.0302,0.03,0.028,0.0268,0.0289,0.0288,0.029,0.0251,0.0243,0.024,0.0208,0.0223,0.0221,0.0219,0.0219,0.0168,0.0168,0,0,0,0,0,0,0.0325,0.0316,0.0308,0.0307,0.0316,0.0302,0.03,0.0297,0.0268,0.0265,0.029,0.0289,0.0247,0.0242,0.0238,0.023,0.022,0.0218,0.0217,0.0168,0.0168,0.0168,0,0,0,0,0,0,0.0325,0.0324,0.0308,0.0313,0.0311,0.0302,0.0299,0.0296,0.0296,0.027,0.0266,0.0293,0.0247,0.0241,0.0225,0.0228,0.0217,0.0216,0.0168,0.0168,0.0168,0.0206,0,0,0,0,0,0,0.0325,0.0324,0.0327,0.0313,0.0311,0.0307,0.0299,0.0296,0.0298,0.0297,0.0271,0.0266,0.0246,0.0229,0.0223,0.0225,0.0214,0.0168,0.0168,0.0168,0.0205,0.0208,0.021,0,0,0,0,0,0.0326,0.033,0.0328,0.0327,0.0315,0.0307,0.0305,0.0298,0.0298,0.0298,0.0281,0.0267,0.0224,0.0227,0.022,0.0221,0.0168,0.0168,0.0168,0.0204,0.0207,0.021,0,0,0,0,0,0,0.0338,0.0329,0.0326,0.0328,0.0321,0.0306,0.0309,0.0304,0.0291,0.0293,0.0267,0.026,0.0245,0.0228,0.0232,0.0206,0.0194,0.0192,0.0223,0.0226,0.0228,0.0238,0.0212,0,0,0,0,0,0.0343,0.0343,0.0332,0.0335,0.0334,0.0323,0.0321,0.0317,0.0304,0.0299,0.0282,0.0261,0.0238,0.0229,0.0206,0.0194,0.0167,0.019,0.0192,0.0195,0.0198,0.0158,0.0157,0.0168,0.0168,0.0168,0,0,0.035,0.0344,0.0345,0.0338,0.0333,0.0335,0.0322,0.0324,0.0326,0.0295,0.0293,0.0268,0.0236,0.022,0.0212,0.0208,0.0176,0.0194,0.0196,0.0199,0.0157,0.0156,0.0155,0.0167,0.0167,0.0167,0,0,0.0364,0.0359,0.0365,0.0361,0.0358,0.0351,0.0355,0.0344,0.034,0.0333,0.0309,0.0288,0.0261,0.0236,0.0219,0.022,0.0187,0.0213,0.0236,0.0197,0.0195,0.0194,0.0156,0.0151,0.0217,0.0217,0.0217,0,0.0374,0.0378,0.0366,0.0371,0.0376,0.0361,0.0373,0.0362,0.0349,0.0346,0.0339,0.0291,0.0267,0.0239,0.024,0.0225,0.0198,0.023,0.02,0.0198,0.0196,0.0157,0.0151,0.0219,0.0219,0.0219,0.0219,0,0.0389,0.0397,0.0402,0.0403,0.0405,0.0411,0.0401,0.04,0.0395,0.0384,0.0361,0.0322,0.0296,0.028,0.0262,0.0235,0.0218,0.0206,0.0196,0.0197,0.0156,0.0149,0.0222,0.0221,0.0221,0.022,0,0,0.04,0.0411,0.0415,0.0427,0.0425,0.043,0.0433,0.043,0.0437,0.041,0.0408,0.0361,0.0342,0.0321,0.0288,0.0253,0.0215,0.023,0.0227,0.0197,0.0127,0.0112,0.0103,0.0197,0.0196,0.0195,0.0103,0,0.0418,0.0443,0.0441,0.0469,0.0482,0.0473,0.0479,0.0475,0.0464,0.0456,0.0408,0.0393,0.0356,0.0347,0.0304,0.0239,0.0198,0.0241,0.0126,0.0122,0.0113,0.0095,0.0192,0.0098,0.0096,0.0095,0.0094,0,0.0432,0.0449,0.0484,0.0509,0.0515,0.0529,0.0543,0.0547,0.0525,0.0515,0.0484,0.0449,0.0396,0.0367,0.0249,0.0279,0.0208,0.0152,0.0147,0.0116,0.0095,0.0094,0.0081,0.0082,0.0083,0.0084,0.0084,0,0.045,0.0479,0.0513,0.052,0.0542,0.0561,0.0574,0.0569,0.0585,0.0557,0.0562,0.0485,0.0458,0.0356,0.0245,0.0247,0.0112,0.0099,0.0013,0.0011,0.0036,0.0038,0.0011,0.0011,0.0011,0.0011,0.0012,0,0.0465,0.0492,0.0528,0.0547,0.0593,0.0596,0.064,0.0635,0.0641,0.0661,0.06,0.0587,0.0456,0.0367,0.0254,0.0112,0.0115,0.0011,-0.0016,0.0054,0.0059,0.0031,0.0034,0.0008,0.0009,0.0009,0.001,0,0.0477,0.0498,0.0542,0.0584,0.0605,0.0639,0.0699,0.0726,0.0722,0.0743,0.0741,0.0665,0.0543,0.04,0.0231,0.0134,-0.0005,-0.0057,0.0029,0.0009,-0.0083,-0.0077,-0.0164,-0.0165,-0.0166,-0.0167,-0.0168,0,0.0482,0.0506,0.0577,0.0615,0.0641,0.0698,0.0742,0.0766,0.0795,0.0786,0.0795,0.0697,0.0624,0.0376,0.0218,-0.0009,-0.004,-0.0114,-0.0103,-0.0085,-0.0102,-0.0094,-0.0086,-0.017,-0.017,-0.017,-0.0171,0,0.0491,0.0523,0.0564,0.0646,0.0707,0.0772,0.0832,0.0861,0.0882,0.0883,0.0835,0.0711,0.0568,0.0374,0.0198,0.0037,-0.0067,-0.0126,-0.0125,-0.0116,-0.0093,-0.0107,-0.0098,-0.0175,-0.0174,-0.0174,-0.0173,0,0.0501,0.0534,0.0598,0.0669,0.0746,0.0816,0.0852,0.0883,0.0911,0.0897,0.0877,0.0726,0.0641,0.0397,0.0234,0.0073,0.0029,-0.0023,-0.0028,-0.0026,0.004,0.0091,0.0039,0,0,0,0,0,0.0504,0.0548,0.0616,0.0696,0.0774,0.0825,0.0896,0.0924,0.0947,0.092,0.0901,0.0766,0.0523,0.042,0.0255,0.0202,-0.0005,0.0001,-0.0068,-0.0196,-0.0192,-0.014,0,0,0,0,0,0,0.0508,0.0571,0.0612,0.0704,0.0765,0.0856,0.0906,0.0927,0.0909,0.0904,0.0779,0.0721,0.0486,0.0618,0.0251,0.0202,0.0133,-0.0109,-0.0113,-0.0199,-0.0195,-0.0191,-0.0136,0,0,0,0,0]}]]